Tracking 30009 objects as of 7-Dec-2024
HD Live streaming from Space Station
objects crossing your sky now

STARLINK-32098

Track STARLINK-32098 now!
10-day predictions
STARLINK-32098 is classified as:


NORAD ID: 59704
Int'l Code: 2024-086Y
Perigee: 450.3 km
Apogee: 452.1 km
Inclination: 43.0 °
Period: 93.5 minutes
Semi major axis: 6822 km
RCS: Unknown
Launch date: May 8, 2024
Source: United States (US)
Launch site: AIR FORCE EASTERN TEST RANGE (AFETR)
Your satellite tracking list
Your tracking list is empty




NASA's NSSDC Master Catalog

Two Line Element Set (TLE):
1 59704U 24086Y   24342.16062896 -.00000118  00000-0  44447-5 0  9997
2 59704  43.0005 136.3581 0001308 276.5531  83.5177 15.40692595 33853
Source of the keplerian elements: AFSPC